TimeCDT,TemperatureF,Dew PointF,Humidity,Sea Level PressureIn,VisibilityMPH,Wind Direction,Wind SpeedMPH,Gust SpeedMPH,PrecipitationIn,Events,Conditions,WindDirDegrees,DateUTC
12:12 AM,64.4,53.6,68,30.02,10.0,Calm,Calm,-,N/A,,Scattered Clouds,0,2013-06-18 05:12:00
12:33 AM,64.4,53.6,68,30.01,10.0,Calm,Calm,-,N/A,,Clear,0,2013-06-18 05:33:00
12:52 AM,64.4,53.6,68,30.02,10.0,Calm,Calm,-,N/A,,Clear,0,2013-06-18 05:52:00
1:12 AM,64.4,53.6,68,30.02,10.0,Calm,Calm,-,N/A,,Clear,0,2013-06-18 06:12:00
1:33 AM,62.6,55.4,77,30.01,10.0,Calm,Calm,-,N/A,,Scattered Clouds,0,2013-06-18 06:33:00
1:52 AM,62.6,55.4,77,30.00,10.0,Calm,Calm,-,N/A,Thunderstorm,Clear,0,2013-06-18 06:52:00
2:12 AM,57.2,53.6,88,30.02,10.0,Calm,Calm,-,N/A,,Clear,0,2013-06-18 07:12:00
2:33 AM,60.8,53.6,77,30.02,10.0,Calm,Calm,-,N/A,,Scattered Clouds,0,2013-06-18 07:33:00
2:52 AM,62.6,55.4,77,30.03,10.0,North,17.3,-,N/A,,Mostly Cloudy,350,2013-06-18 07:52:00
3:12 AM,62.6,55.4,77,30.03,10.0,NNE,10.4,-,N/A,Thunderstorm,Unknown,30,2013-06-18 08:12:00
3:33 AM,62.6,53.6,72,30.03,10.0,NE,6.9,-,N/A,,Mostly Cloudy,40,2013-06-18 08:33:00
3:52 AM,60.8,53.6,77,30.03,10.0,NE,12.7,20.7,N/A,,Mostly Cloudy,50,2013-06-18 08:52:00
4:12 AM,59.0,55.4,88,30.04,10.0,NNE,13.8,19.6,N/A,,Scattered Clouds,30,2013-06-18 09:12:00
4:32 AM,59.0,55.4,88,30.04,10.0,NE,10.4,-,N/A,,Clear,40,2013-06-18 09:32:00
4:52 AM,59.0,55.4,88,30.05,10.0,NE,9.2,-,N/A,Thunderstorm,Clear,50,2013-06-18 09:52:00
5:13 AM,59.0,55.4,88,30.05,10.0,ENE,9.2,-,N/A,,Clear,60,2013-06-18 10:13:00
5:32 AM,59.0,55.4,88,30.06,10.0,ENE,8.1,-,N/A,,Clear,60,2013-06-18 10:32:00
5:53 AM,59.0,55.4,88,30.06,10.0,ENE,8.1,-,N/A,,Clear,60,2013-06-18 10:53:00
6:12 AM,57.2,55.4,94,30.05,10.0,ENE,4.6,-,N/A,,Clear,70,2013-06-18 11:12:00
6:32 AM,57.2,55.4,94,30.05,10.0,Calm,Calm,-,N/A,,Clear,0,2013-06-18 11:32:00
6:53 AM,60.8,55.4,82,30.05,10.0,Calm,Calm,-,N/A,,Clear,0,2013-06-18 11:53:00
7:12 AM,60.8,57.2,88,30.05,10.0,Calm,Calm,-,N/A,,Clear,0,2013-06-18 12:12:00
7:32 AM,62.6,57.2,82,30.06,10.0,NE,5.8,-,N/A,,Clear,50,2013-06-18 12:32:00
7:53 AM,62.6,57.2,82,30.06,10.0,Calm,Calm,-,N/A,,Clear,0,2013-06-18 12:53:00
8:12 AM,64.4,57.2,77,30.08,10.0,NNE,4.6,-,N/A,,Clear,30,2013-06-18 13:12:00
8:32 AM,64.4,57.2,77,30.08,10.0,North,3.5,-,N/A,,Clear,360,2013-06-18 13:32:00
8:53 AM,64.4,57.2,77,30.08,10.0,NNE,5.8,-,N/A,,Clear,30,2013-06-18 13:53:00
9:12 AM,64.4,57.2,77,30.09,10.0,NE,6.9,-,N/A,,Clear,50,2013-06-18 14:12:00
9:32 AM,66.2,57.2,73,30.09,10.0,NNE,8.1,-,N/A,,Clear,30,2013-06-18 14:32:00
9:53 AM,66.2,57.2,73,30.09,10.0,NNE,8.1,-,N/A,,Clear,30,2013-06-18 14:53:00
10:12 AM,66.2,57.2,73,30.10,10.0,NNE,6.9,-,N/A,,Clear,20,2013-06-18 15:12:00
10:32 AM,66.2,57.2,73,30.09,10.0,North,6.9,-,N/A,,Clear,350,2013-06-18 15:32:00
10:53 AM,68.0,57.2,68,30.09,10.0,Calm,Calm,-,N/A,,Clear,0,2013-06-18 15:53:00
11:12 AM,69.8,57.2,64,30.09,10.0,North,5.8,-,N/A,,Clear,360,2013-06-18 16:12:00
11:32 AM,69.8,57.2,64,30.09,10.0,North,6.9,-,N/A,,Clear,10,2013-06-18 16:32:00
11:52 AM,71.6,57.2,60,30.09,10.0,NNE,9.2,-,N/A,,Clear,20,2013-06-18 16:52:00
12:12 PM,71.6,57.2,60,30.08,10.0,North,8.1,16.1,N/A,,Clear,10,2013-06-18 17:12:00
12:33 PM,71.6,57.2,60,30.08,10.0,NE,6.9,-,N/A,,Clear,40,2013-06-18 17:33:00
12:52 PM,71.6,57.2,60,30.08,10.0,NNE,8.1,-,N/A,,Clear,20,2013-06-18 17:52:00
1:12 PM,73.4,57.2,57,30.07,10.0,NE,9.2,-,N/A,,Clear,40,2013-06-18 18:12:00
1:33 PM,73.4,57.2,57,30.07,10.0,NE,6.9,-,N/A,,Clear,50,2013-06-18 18:33:00
1:53 PM,73.4,57.2,57,30.07,10.0,Calm,Calm,-,N/A,,Scattered Clouds,0,2013-06-18 18:53:00
2:12 PM,73.4,55.4,53,30.07,10.0,Calm,Calm,-,N/A,,Scattered Clouds,0,2013-06-18 19:12:00
2:33 PM,73.4,55.4,53,30.06,10.0,ENE,5.8,-,N/A,,Scattered Clouds,70,2013-06-18 19:33:00
2:53 PM,73.4,55.4,53,30.06,10.0,ENE,4.6,-,N/A,,Clear,60,2013-06-18 19:53:00
3:12 PM,75.2,55.4,50,30.06,10.0,Calm,Calm,-,N/A,,Clear,0,2013-06-18 20:12:00
3:33 PM,75.2,57.2,53,30.05,10.0,NE,4.6,-,N/A,,Scattered Clouds,50,2013-06-18 20:33:00
3:53 PM,75.2,57.2,53,30.05,10.0,Calm,Calm,-,N/A,,Clear,0,2013-06-18 20:53:00
4:12 PM,75.2,57.2,53,30.05,10.0,ENE,9.2,-,N/A,,Clear,70,2013-06-18 21:12:00
4:33 PM,75.2,55.4,50,30.04,10.0,East,4.6,-,N/A,,Clear,80,2013-06-18 21:33:00
4:53 PM,75.2,57.2,53,30.04,10.0,ENE,9.2,-,N/A,,Clear,60,2013-06-18 21:53:00
5:12 PM,75.2,55.4,50,30.04,10.0,Calm,Calm,-,N/A,,Scattered Clouds,0,2013-06-18 22:12:00
5:32 PM,77.0,55.4,47,30.04,10.0,Calm,Calm,-,N/A,,Mostly Cloudy,0,2013-06-18 22:32:00
5:53 PM,75.2,55.4,50,30.03,10.0,Calm,Calm,-,N/A,,Scattered Clouds,0,2013-06-18 22:53:00
6:12 PM,75.2,55.4,50,30.03,10.0,East,6.9,-,N/A,,Mostly Cloudy,90,2013-06-18 23:12:00
6:32 PM,75.2,55.4,50,30.03,10.0,Calm,Calm,-,N/A,,Scattered Clouds,0,2013-06-18 23:32:00
6:53 PM,75.2,55.4,50,30.02,10.0,ESE,4.6,-,N/A,,Clear,120,2013-06-18 23:53:00
7:12 PM,75.2,55.4,50,30.02,10.0,Calm,Calm,-,N/A,,Clear,0,2013-06-19 00:12:00
7:33 PM,71.6,55.4,57,30.02,10.0,Calm,Calm,-,N/A,,Clear,0,2013-06-19 00:33:00
7:53 PM,73.4,55.4,53,30.02,10.0,ENE,6.9,-,N/A,,Clear,70,2013-06-19 00:53:00
8:12 PM,73.4,55.4,53,30.02,10.0,ENE,6.9,-,N/A,,Clear,70,2013-06-19 01:12:00
8:33 PM,71.6,53.6,53,30.01,10.0,East,4.6,-,N/A,,Clear,80,2013-06-19 01:33:00
8:53 PM,69.8,55.4,60,30.01,10.0,ENE,4.6,-,N/A,,Clear,70,2013-06-19 01:53:00
9:12 PM,68.0,55.4,64,30.01,10.0,ENE,4.6,-,N/A,,Clear,70,2013-06-19 02:12:00
9:32 PM,66.2,55.4,68,30.02,10.0,ENE,4.6,-,N/A,,Clear,70,2013-06-19 02:32:00
9:53 PM,66.2,57.2,73,30.03,10.0,ENE,5.8,-,N/A,,Clear,60,2013-06-19 02:53:00
10:12 PM,64.4,57.2,77,30.04,10.0,ENE,5.8,-,N/A,,Clear,60,2013-06-19 03:12:00
10:33 PM,64.4,57.2,77,30.04,10.0,East,3.5,-,N/A,,Clear,80,2013-06-19 03:33:00
10:52 PM,64.4,57.2,77,30.04,10.0,East,5.8,-,N/A,,Clear,80,2013-06-19 03:52:00
11:12 PM,64.4,57.2,77,30.03,10.0,East,5.8,-,N/A,,Clear,80,2013-06-19 04:12:00
11:33 PM,64.4,57.2,77,30.03,10.0,East,4.6,-,N/A,,Clear,90,2013-06-19 04:33:00
11:52 PM,66.2,57.2,73,30.03,10.0,East,5.8,-,N/A,,Clear,100,2013-06-19 04:52:00